Index of /20260416/WXO-DD/model_rdps/10km/00/026
Name Last modified Size Description
Parent Directory -
20260416T00Z_MSC_RDPS_AbsoluteVorticity_IsbL-0250_RLatLon0.09_PT026H.grib2 2026-04-16 02:51 603K
20260416T00Z_MSC_RDPS_AbsoluteVorticity_IsbL-0500_RLatLon0.09_PT026H.grib2 2026-04-16 02:51 557K
20260416T00Z_MSC_RDPS_AbsoluteVorticity_IsbL-0700_RLatLon0.09_PT026H.grib2 2026-04-16 02:51 613K
20260416T00Z_MSC_RDPS_AbsoluteVorticity_IsbL-0850_RLatLon0.09_PT026H.grib2 2026-04-16 02:51 774K
20260416T00Z_MSC_RDPS_AirTemp_AGL-120m_RLatLon0.09_PT026H.grib2 2026-04-16 02:51 389K
20260416T00Z_MSC_RDPS_AirTemp_AGL-2m_RLatLon0.09_PT026H.grib2 2026-04-16 02:51 627K
20260416T00Z_MSC_RDPS_AirTemp_AGL-40m_RLatLon0.09_PT026H.grib2 2026-04-16 02:51 400K
20260416T00Z_MSC_RDPS_AirTemp_AGL-80m_RLatLon0.09_PT026H.grib2 2026-04-16 02:51 394K
20260416T00Z_MSC_RDPS_AirTemp_IsbL-0001_RLatLon0.09_PT026H.grib2 2026-04-16 02:51 295K
20260416T00Z_MSC_RDPS_AirTemp_IsbL-0005_RLatLon0.09_PT026H.grib2 2026-04-16 02:51 329K
20260416T00Z_MSC_RDPS_AirTemp_IsbL-0010_RLatLon0.09_PT026H.grib2 2026-04-16 02:51 338K
20260416T00Z_MSC_RDPS_AirTemp_IsbL-0020_RLatLon0.09_PT026H.grib2 2026-04-16 02:51 357K
20260416T00Z_MSC_RDPS_AirTemp_IsbL-0030_RLatLon0.09_PT026H.grib2 2026-04-16 02:51 380K
20260416T00Z_MSC_RDPS_AirTemp_IsbL-0050_RLatLon0.09_PT026H.grib2 2026-04-16 02:51 329K
20260416T00Z_MSC_RDPS_AirTemp_IsbL-0100_RLatLon0.09_PT026H.grib2 2026-04-16 02:51 392K
20260416T00Z_MSC_RDPS_AirTemp_IsbL-0150_RLatLon0.09_PT026H.grib2 2026-04-16 02:51 406K
20260416T00Z_MSC_RDPS_AirTemp_IsbL-0175_RLatLon0.09_PT026H.grib2 2026-04-16 02:51 404K
20260416T00Z_MSC_RDPS_AirTemp_IsbL-0200_RLatLon0.09_PT026H.grib2 2026-04-16 02:51 410K
20260416T00Z_MSC_RDPS_AirTemp_IsbL-0225_RLatLon0.09_PT026H.grib2 2026-04-16 02:51 412K
20260416T00Z_MSC_RDPS_AirTemp_IsbL-0250_RLatLon0.09_PT026H.grib2 2026-04-16 02:51 421K
20260416T00Z_MSC_RDPS_AirTemp_IsbL-0275_RLatLon0.09_PT026H.grib2 2026-04-16 02:51 403K
20260416T00Z_MSC_RDPS_AirTemp_IsbL-0300_RLatLon0.09_PT026H.grib2 2026-04-16 02:51 434K
20260416T00Z_MSC_RDPS_AirTemp_IsbL-0350_RLatLon0.09_PT026H.grib2 2026-04-16 02:51 419K
20260416T00Z_MSC_RDPS_AirTemp_IsbL-0400_RLatLon0.09_PT026H.grib2 2026-04-16 02:51 420K
20260416T00Z_MSC_RDPS_AirTemp_IsbL-0450_RLatLon0.09_PT026H.grib2 2026-04-16 02:51 393K
20260416T00Z_MSC_RDPS_AirTemp_IsbL-0500_RLatLon0.09_PT026H.grib2 2026-04-16 02:51 405K
20260416T00Z_MSC_RDPS_AirTemp_IsbL-0550_RLatLon0.09_PT026H.grib2 2026-04-16 02:51 421K
20260416T00Z_MSC_RDPS_AirTemp_IsbL-0600_RLatLon0.09_PT026H.grib2 2026-04-16 02:51 440K
20260416T00Z_MSC_RDPS_AirTemp_IsbL-0650_RLatLon0.09_PT026H.grib2 2026-04-16 02:51 451K
20260416T00Z_MSC_RDPS_AirTemp_IsbL-0700_RLatLon0.09_PT026H.grib2 2026-04-16 02:51 367K
20260416T00Z_MSC_RDPS_AirTemp_IsbL-0750_RLatLon0.09_PT026H.grib2 2026-04-16 02:51 400K
20260416T00Z_MSC_RDPS_AirTemp_IsbL-0800_RLatLon0.09_PT026H.grib2 2026-04-16 02:51 444K
20260416T00Z_MSC_RDPS_AirTemp_IsbL-0850_RLatLon0.09_PT026H.grib2 2026-04-16 02:51 489K
20260416T00Z_MSC_RDPS_AirTemp_IsbL-0875_RLatLon0.09_PT026H.grib2 2026-04-16 02:51 506K
20260416T00Z_MSC_RDPS_AirTemp_IsbL-0900_RLatLon0.09_PT026H.grib2 2026-04-16 02:51 517K
20260416T00Z_MSC_RDPS_AirTemp_IsbL-0925_RLatLon0.09_PT026H.grib2 2026-04-16 02:51 520K
20260416T00Z_MSC_RDPS_AirTemp_IsbL-0950_RLatLon0.09_PT026H.grib2 2026-04-16 02:51 517K
20260416T00Z_MSC_RDPS_AirTemp_IsbL-0970_RLatLon0.09_PT026H.grib2 2026-04-16 02:51 523K
20260416T00Z_MSC_RDPS_AirTemp_IsbL-0985_RLatLon0.09_PT026H.grib2 2026-04-16 02:51 503K
20260416T00Z_MSC_RDPS_AirTemp_IsbL-1000_RLatLon0.09_PT026H.grib2 2026-04-16 02:51 500K
20260416T00Z_MSC_RDPS_AirTemp_IsbL-1015_RLatLon0.09_PT026H.grib2 2026-04-16 02:51 498K
20260416T00Z_MSC_RDPS_Albedo_Sfc_RLatLon0.09_PT026H.grib2 2026-04-16 02:51 168K
20260416T00Z_MSC_RDPS_CAPE_Sfc_RLatLon0.09_PT026H.grib2 2026-04-16 02:51 1.7M
20260416T00Z_MSC_RDPS_CIN_Sfc_RLatLon0.09_PT026H.grib2 2026-04-16 02:51 1.2M
20260416T00Z_MSC_RDPS_CloudWater_EAtm_RLatLon0.09_PT026H.grib2 2026-04-16 02:51 212K
20260416T00Z_MSC_RDPS_ConvectivePrecip-Accum_Sfc_RLatLon0.09_PT026H.grib2 2026-04-16 02:51 882K
20260416T00Z_MSC_RDPS_DewPointDepression_AGL-2m_RLatLon0.09_PT026H.grib2 2026-04-16 02:51 391K
20260416T00Z_MSC_RDPS_DewPointDepression_IsbL-0001_RLatLon0.09_PT026H.grib2 2026-04-16 02:51 193
20260416T00Z_MSC_RDPS_DewPointDepression_IsbL-0005_RLatLon0.09_PT026H.grib2 2026-04-16 02:51 193
20260416T00Z_MSC_RDPS_DewPointDepression_IsbL-0010_RLatLon0.09_PT026H.grib2 2026-04-16 02:51 193
20260416T00Z_MSC_RDPS_DewPointDepression_IsbL-0020_RLatLon0.09_PT026H.grib2 2026-04-16 02:51 193
20260416T00Z_MSC_RDPS_DewPointDepression_IsbL-0030_RLatLon0.09_PT026H.grib2 2026-04-16 02:51 9.4K
20260416T00Z_MSC_RDPS_DewPointDepression_IsbL-0050_RLatLon0.09_PT026H.grib2 2026-04-16 02:51 105K
20260416T00Z_MSC_RDPS_DewPointDepression_IsbL-0100_RLatLon0.09_PT026H.grib2 2026-04-16 02:51 122K
20260416T00Z_MSC_RDPS_DewPointDepression_IsbL-0150_RLatLon0.09_PT026H.grib2 2026-04-16 02:51 147K
20260416T00Z_MSC_RDPS_DewPointDepression_IsbL-0175_RLatLon0.09_PT026H.grib2 2026-04-16 02:51 175K
20260416T00Z_MSC_RDPS_DewPointDepression_IsbL-0200_RLatLon0.09_PT026H.grib2 2026-04-16 02:51 204K
20260416T00Z_MSC_RDPS_DewPointDepression_IsbL-0225_RLatLon0.09_PT026H.grib2 2026-04-16 02:51 247K
20260416T00Z_MSC_RDPS_DewPointDepression_IsbL-0250_RLatLon0.09_PT026H.grib2 2026-04-16 02:51 295K
20260416T00Z_MSC_RDPS_DewPointDepression_IsbL-0275_RLatLon0.09_PT026H.grib2 2026-04-16 02:51 304K
20260416T00Z_MSC_RDPS_DewPointDepression_IsbL-0300_RLatLon0.09_PT026H.grib2 2026-04-16 02:51 320K
20260416T00Z_MSC_RDPS_DewPointDepression_IsbL-0350_RLatLon0.09_PT026H.grib2 2026-04-16 02:51 322K
20260416T00Z_MSC_RDPS_DewPointDepression_IsbL-0400_RLatLon0.09_PT026H.grib2 2026-04-16 02:51 332K
20260416T00Z_MSC_RDPS_DewPointDepression_IsbL-0450_RLatLon0.09_PT026H.grib2 2026-04-16 02:51 339K
20260416T00Z_MSC_RDPS_DewPointDepression_IsbL-0500_RLatLon0.09_PT026H.grib2 2026-04-16 02:51 346K
20260416T00Z_MSC_RDPS_DewPointDepression_IsbL-0550_RLatLon0.09_PT026H.grib2 2026-04-16 02:51 360K
20260416T00Z_MSC_RDPS_DewPointDepression_IsbL-0600_RLatLon0.09_PT026H.grib2 2026-04-16 02:51 377K
20260416T00Z_MSC_RDPS_DewPointDepression_IsbL-0650_RLatLon0.09_PT026H.grib2 2026-04-16 02:51 385K
20260416T00Z_MSC_RDPS_DewPointDepression_IsbL-0700_RLatLon0.09_PT026H.grib2 2026-04-16 02:51 391K
20260416T00Z_MSC_RDPS_DewPointDepression_IsbL-0750_RLatLon0.09_PT026H.grib2 2026-04-16 02:51 412K
20260416T00Z_MSC_RDPS_DewPointDepression_IsbL-0800_RLatLon0.09_PT026H.grib2 2026-04-16 02:51 442K
20260416T00Z_MSC_RDPS_DewPointDepression_IsbL-0850_RLatLon0.09_PT026H.grib2 2026-04-16 02:51 466K
20260416T00Z_MSC_RDPS_DewPointDepression_IsbL-0875_RLatLon0.09_PT026H.grib2 2026-04-16 02:51 463K
20260416T00Z_MSC_RDPS_DewPointDepression_IsbL-0900_RLatLon0.09_PT026H.grib2 2026-04-16 02:51 459K
20260416T00Z_MSC_RDPS_DewPointDepression_IsbL-0925_RLatLon0.09_PT026H.grib2 2026-04-16 02:51 449K
20260416T00Z_MSC_RDPS_DewPointDepression_IsbL-0950_RLatLon0.09_PT026H.grib2 2026-04-16 02:51 436K
20260416T00Z_MSC_RDPS_DewPointDepression_IsbL-0970_RLatLon0.09_PT026H.grib2 2026-04-16 02:51 424K
20260416T00Z_MSC_RDPS_DewPointDepression_IsbL-0985_RLatLon0.09_PT026H.grib2 2026-04-16 02:51 418K
20260416T00Z_MSC_RDPS_DewPointDepression_IsbL-1000_RLatLon0.09_PT026H.grib2 2026-04-16 02:51 414K
20260416T00Z_MSC_RDPS_DewPointDepression_IsbL-1015_RLatLon0.09_PT026H.grib2 2026-04-16 02:51 405K
20260416T00Z_MSC_RDPS_DewPoint_AGL-2m_RLatLon0.09_PT026H.grib2 2026-04-16 02:51 306K
20260416T00Z_MSC_RDPS_DownwardLongwaveRadiationFlux-Accum_Sfc_RLatLon0.09_PT026H.grib2 2026-04-16 02:51 445K
20260416T00Z_MSC_RDPS_DownwardShortwaveRadiationFlux-Accum_NTAtm_RLatLon0.09_PT026H.grib2 2026-04-16 02:51 108K
20260416T00Z_MSC_RDPS_DownwardShortwaveRadiationFlux-Accum_Sfc_RLatLon0.09_PT026H.grib2 2026-04-16 02:51 624K
20260416T00Z_MSC_RDPS_FreezingRain-Accum1h_Sfc_RLatLon0.09_PT026H.grib2 2026-04-16 02:51 30K
20260416T00Z_MSC_RDPS_FreezingRain-Accum_Sfc_RLatLon0.09_PT026H.grib2 2026-04-16 02:51 101K
20260416T00Z_MSC_RDPS_GeopotentialHeight_IsbL-0001_RLatLon0.09_PT026H.grib2 2026-04-16 02:51 265K
20260416T00Z_MSC_RDPS_GeopotentialHeight_IsbL-0005_RLatLon0.09_PT026H.grib2 2026-04-16 02:51 232K
20260416T00Z_MSC_RDPS_GeopotentialHeight_IsbL-0010_RLatLon0.09_PT026H.grib2 2026-04-16 02:51 304K
20260416T00Z_MSC_RDPS_GeopotentialHeight_IsbL-0020_RLatLon0.09_PT026H.grib2 2026-04-16 02:51 333K
20260416T00Z_MSC_RDPS_GeopotentialHeight_IsbL-0030_RLatLon0.09_PT026H.grib2 2026-04-16 02:51 337K
20260416T00Z_MSC_RDPS_GeopotentialHeight_IsbL-0050_RLatLon0.09_PT026H.grib2 2026-04-16 02:51 238K
20260416T00Z_MSC_RDPS_GeopotentialHeight_IsbL-0100_RLatLon0.09_PT026H.grib2 2026-04-16 02:51 223K
20260416T00Z_MSC_RDPS_GeopotentialHeight_IsbL-0150_RLatLon0.09_PT026H.grib2 2026-04-16 02:51 263K
20260416T00Z_MSC_RDPS_GeopotentialHeight_IsbL-0175_RLatLon0.09_PT026H.grib2 2026-04-16 02:51 265K
20260416T00Z_MSC_RDPS_GeopotentialHeight_IsbL-0200_RLatLon0.09_PT026H.grib2 2026-04-16 02:51 266K
20260416T00Z_MSC_RDPS_GeopotentialHeight_IsbL-0225_RLatLon0.09_PT026H.grib2 2026-04-16 02:51 267K
20260416T00Z_MSC_RDPS_GeopotentialHeight_IsbL-0250_RLatLon0.09_PT026H.grib2 2026-04-16 02:51 269K
20260416T00Z_MSC_RDPS_GeopotentialHeight_IsbL-0275_RLatLon0.09_PT026H.grib2 2026-04-16 02:51 268K
20260416T00Z_MSC_RDPS_GeopotentialHeight_IsbL-0300_RLatLon0.09_PT026H.grib2 2026-04-16 02:51 267K
20260416T00Z_MSC_RDPS_GeopotentialHeight_IsbL-0350_RLatLon0.09_PT026H.grib2 2026-04-16 02:51 232K
20260416T00Z_MSC_RDPS_GeopotentialHeight_IsbL-0400_RLatLon0.09_PT026H.grib2 2026-04-16 02:51 229K
20260416T00Z_MSC_RDPS_GeopotentialHeight_IsbL-0450_RLatLon0.09_PT026H.grib2 2026-04-16 02:51 224K
20260416T00Z_MSC_RDPS_GeopotentialHeight_IsbL-0500_RLatLon0.09_PT026H.grib2 2026-04-16 02:51 290K
20260416T00Z_MSC_RDPS_GeopotentialHeight_IsbL-0550_RLatLon0.09_PT026H.grib2 2026-04-16 02:51 286K
20260416T00Z_MSC_RDPS_GeopotentialHeight_IsbL-0600_RLatLon0.09_PT026H.grib2 2026-04-16 02:51 283K
20260416T00Z_MSC_RDPS_GeopotentialHeight_IsbL-0650_RLatLon0.09_PT026H.grib2 2026-04-16 02:51 280K
20260416T00Z_MSC_RDPS_GeopotentialHeight_IsbL-0700_RLatLon0.09_PT026H.grib2 2026-04-16 02:51 250K
20260416T00Z_MSC_RDPS_GeopotentialHeight_IsbL-0750_RLatLon0.09_PT026H.grib2 2026-04-16 02:51 251K
20260416T00Z_MSC_RDPS_GeopotentialHeight_IsbL-0800_RLatLon0.09_PT026H.grib2 2026-04-16 02:51 339K
20260416T00Z_MSC_RDPS_GeopotentialHeight_IsbL-0850_RLatLon0.09_PT026H.grib2 2026-04-16 02:51 378K
20260416T00Z_MSC_RDPS_GeopotentialHeight_IsbL-0875_RLatLon0.09_PT026H.grib2 2026-04-16 02:51 381K
20260416T00Z_MSC_RDPS_GeopotentialHeight_IsbL-0900_RLatLon0.09_PT026H.grib2 2026-04-16 02:51 386K
20260416T00Z_MSC_RDPS_GeopotentialHeight_IsbL-0925_RLatLon0.09_PT026H.grib2 2026-04-16 02:51 389K
20260416T00Z_MSC_RDPS_GeopotentialHeight_IsbL-0950_RLatLon0.09_PT026H.grib2 2026-04-16 02:51 392K
20260416T00Z_MSC_RDPS_GeopotentialHeight_IsbL-0970_RLatLon0.09_PT026H.grib2 2026-04-16 02:51 396K
20260416T00Z_MSC_RDPS_GeopotentialHeight_IsbL-0985_RLatLon0.09_PT026H.grib2 2026-04-16 02:51 405K
20260416T00Z_MSC_RDPS_GeopotentialHeight_IsbL-1000_RLatLon0.09_PT026H.grib2 2026-04-16 02:51 416K
20260416T00Z_MSC_RDPS_GeopotentialHeight_IsbL-1015_RLatLon0.09_PT026H.grib2 2026-04-16 02:51 432K
20260416T00Z_MSC_RDPS_Humidex_Sfc_RLatLon0.09_PT026H.grib2 2026-04-16 02:51 2.4M
20260416T00Z_MSC_RDPS_IcePellets-Accum1h_Sfc_RLatLon0.09_PT026H.grib2 2026-04-16 02:51 7.5K
20260416T00Z_MSC_RDPS_IcePellets-Accum_Sfc_RLatLon0.09_PT026H.grib2 2026-04-16 02:51 23K
20260416T00Z_MSC_RDPS_KIndex_Sfc_RLatLon0.09_PT026H.grib2 2026-04-16 02:51 2.4M
20260416T00Z_MSC_RDPS_LatentHeatNetFlux_Sfc_RLatLon0.09_PT026H.grib2 2026-04-16 02:51 306K
20260416T00Z_MSC_RDPS_LiftedIndex-MU-VT_IsbL-0500_RLatLon0.09_PT026H.grib2 2026-04-16 02:51 2.4M
20260416T00Z_MSC_RDPS_NetLongwaveRadiationFlux-Accum_Sfc_RLatLon0.09_PT026H.grib2 2026-04-16 02:51 592K
20260416T00Z_MSC_RDPS_NetShortwaveRadiationFlux-Accum_Sfc_RLatLon0.09_PT026H.grib2 2026-04-16 02:51 628K
20260416T00Z_MSC_RDPS_PlanetaryBoundaryLayerHeight_Sfc_RLatLon0.09_PT026H.grib2 2026-04-16 02:51 1.1M
20260416T00Z_MSC_RDPS_Precip-Accum1h_Sfc_RLatLon0.09_PT026H.grib2 2026-04-16 02:51 1.2M
20260416T00Z_MSC_RDPS_Precip-Accum_Sfc_RLatLon0.09_PT026H.grib2 2026-04-16 02:51 2.0M
20260416T00Z_MSC_RDPS_PrecipRate_Sfc_RLatLon0.09_PT026H.grib2 2026-04-16 02:51 168K
20260416T00Z_MSC_RDPS_PrecipType-Instant_Sfc_RLatLon0.09_PT026H.grib2 2026-04-16 02:51 561K
20260416T00Z_MSC_RDPS_Pressure-Trend3h_Sfc_RLatLon0.09_PT026H.grib2 2026-04-16 02:51 1.2M
20260416T00Z_MSC_RDPS_Pressure_MSL_RLatLon0.09_PT026H.grib2 2026-04-16 02:51 289K
20260416T00Z_MSC_RDPS_Pressure_PVU-1.5_RLatLon0.09_PT026H.grib2 2026-04-16 02:51 2.4M
20260416T00Z_MSC_RDPS_Pressure_PVU-1_RLatLon0.09_PT026H.grib2 2026-04-16 02:51 2.4M
20260416T00Z_MSC_RDPS_Pressure_PVU-2_RLatLon0.09_PT026H.grib2 2026-04-16 02:51 2.4M
20260416T00Z_MSC_RDPS_Pressure_Sfc_RLatLon0.09_PT026H.grib2 2026-04-16 02:51 499K
20260416T00Z_MSC_RDPS_RadiativeTemp_Sfc_RLatLon0.09_PT026H.grib2 2026-04-16 02:51 305K
20260416T00Z_MSC_RDPS_Rain-Accum1h_Sfc_RLatLon0.09_PT026H.grib2 2026-04-16 02:51 581K
20260416T00Z_MSC_RDPS_Rain-Accum_Sfc_RLatLon0.09_PT026H.grib2 2026-04-16 02:51 1.4M
20260416T00Z_MSC_RDPS_RelativeHumidity_AGL-2m_RLatLon0.09_PT026H.grib2 2026-04-16 02:51 1.0M
20260416T00Z_MSC_RDPS_RelativeHumidity_IsbL-0010_RLatLon0.09_PT026H.grib2 2026-04-16 02:51 512K
20260416T00Z_MSC_RDPS_RelativeHumidity_IsbL-0020_RLatLon0.09_PT026H.grib2 2026-04-16 02:51 401K
20260416T00Z_MSC_RDPS_RelativeHumidity_IsbL-0030_RLatLon0.09_PT026H.grib2 2026-04-16 02:51 359K
20260416T00Z_MSC_RDPS_RelativeHumidity_IsbL-0050_RLatLon0.09_PT026H.grib2 2026-04-16 02:51 394K
20260416T00Z_MSC_RDPS_RelativeHumidity_IsbL-0100_RLatLon0.09_PT026H.grib2 2026-04-16 02:51 261K
20260416T00Z_MSC_RDPS_RelativeHumidity_IsbL-0150_RLatLon0.09_PT026H.grib2 2026-04-16 02:51 379K
20260416T00Z_MSC_RDPS_RelativeHumidity_IsbL-0175_RLatLon0.09_PT026H.grib2 2026-04-16 02:51 456K
20260416T00Z_MSC_RDPS_RelativeHumidity_IsbL-0200_RLatLon0.09_PT026H.grib2 2026-04-16 02:51 533K
20260416T00Z_MSC_RDPS_RelativeHumidity_IsbL-0225_RLatLon0.09_PT026H.grib2 2026-04-16 02:51 601K
20260416T00Z_MSC_RDPS_RelativeHumidity_IsbL-0250_RLatLon0.09_PT026H.grib2 2026-04-16 02:51 678K
20260416T00Z_MSC_RDPS_RelativeHumidity_IsbL-0275_RLatLon0.09_PT026H.grib2 2026-04-16 02:51 709K
20260416T00Z_MSC_RDPS_RelativeHumidity_IsbL-0300_RLatLon0.09_PT026H.grib2 2026-04-16 02:51 757K
20260416T00Z_MSC_RDPS_RelativeHumidity_IsbL-0350_RLatLon0.09_PT026H.grib2 2026-04-16 02:51 775K
20260416T00Z_MSC_RDPS_RelativeHumidity_IsbL-0400_RLatLon0.09_PT026H.grib2 2026-04-16 02:51 783K
20260416T00Z_MSC_RDPS_RelativeHumidity_IsbL-0450_RLatLon0.09_PT026H.grib2 2026-04-16 02:51 791K
20260416T00Z_MSC_RDPS_RelativeHumidity_IsbL-0500_RLatLon0.09_PT026H.grib2 2026-04-16 02:51 810K
20260416T00Z_MSC_RDPS_RelativeHumidity_IsbL-0550_RLatLon0.09_PT026H.grib2 2026-04-16 02:51 834K
20260416T00Z_MSC_RDPS_RelativeHumidity_IsbL-0600_RLatLon0.09_PT026H.grib2 2026-04-16 02:51 858K
20260416T00Z_MSC_RDPS_RelativeHumidity_IsbL-0650_RLatLon0.09_PT026H.grib2 2026-04-16 02:51 866K
20260416T00Z_MSC_RDPS_RelativeHumidity_IsbL-0700_RLatLon0.09_PT026H.grib2 2026-04-16 02:51 884K
20260416T00Z_MSC_RDPS_RelativeHumidity_IsbL-0750_RLatLon0.09_PT026H.grib2 2026-04-16 02:51 928K
20260416T00Z_MSC_RDPS_RelativeHumidity_IsbL-0800_RLatLon0.09_PT026H.grib2 2026-04-16 02:51 1.0M
20260416T00Z_MSC_RDPS_RelativeHumidity_IsbL-0850_RLatLon0.09_PT026H.grib2 2026-04-16 02:51 1.0M
20260416T00Z_MSC_RDPS_RelativeHumidity_IsbL-0875_RLatLon0.09_PT026H.grib2 2026-04-16 02:51 1.0M
20260416T00Z_MSC_RDPS_RelativeHumidity_IsbL-0900_RLatLon0.09_PT026H.grib2 2026-04-16 02:51 1.1M
20260416T00Z_MSC_RDPS_RelativeHumidity_IsbL-0925_RLatLon0.09_PT026H.grib2 2026-04-16 02:51 1.1M
20260416T00Z_MSC_RDPS_RelativeHumidity_IsbL-0950_RLatLon0.09_PT026H.grib2 2026-04-16 02:51 1.1M
20260416T00Z_MSC_RDPS_RelativeHumidity_IsbL-0970_RLatLon0.09_PT026H.grib2 2026-04-16 02:51 1.0M
20260416T00Z_MSC_RDPS_RelativeHumidity_IsbL-0985_RLatLon0.09_PT026H.grib2 2026-04-16 02:51 1.0M
20260416T00Z_MSC_RDPS_RelativeHumidity_IsbL-1000_RLatLon0.09_PT026H.grib2 2026-04-16 02:51 1.0M
20260416T00Z_MSC_RDPS_RelativeHumidity_IsbL-1015_RLatLon0.09_PT026H.grib2 2026-04-16 02:51 1.0M
20260416T00Z_MSC_RDPS_Runoff-Accum_Sfc_RLatLon0.09_PT026H.grib2 2026-04-16 02:51 54K
20260416T00Z_MSC_RDPS_SWEATIndex_Sfc_RLatLon0.09_PT026H.grib2 2026-04-16 02:51 2.4M
20260416T00Z_MSC_RDPS_SeeingIndex_EAtm_RLatLon0.09_PT026H.grib2 2026-04-16 02:51 1.0M
20260416T00Z_MSC_RDPS_SensibleHeatNetFlux_Sfc_RLatLon0.09_PT026H.grib2 2026-04-16 02:51 287K
20260416T00Z_MSC_RDPS_ShowalterIndex_IsbL-0500_RLatLon0.09_PT026H.grib2 2026-04-16 02:51 2.6M
20260416T00Z_MSC_RDPS_SkyTransparencyIndex_EAtm_RLatLon0.09_PT026H.grib2 2026-04-16 02:51 713K
20260416T00Z_MSC_RDPS_Snow-Accum1h_Sfc_RLatLon0.09_PT026H.grib2 2026-04-16 02:51 498K
20260416T00Z_MSC_RDPS_Snow-Accum_Sfc_RLatLon0.09_PT026H.grib2 2026-04-16 02:51 752K
20260416T00Z_MSC_RDPS_SnowDensity_Sfc_RLatLon0.09_PT026H.grib2 2026-04-16 02:51 176K
20260416T00Z_MSC_RDPS_SnowDepth_Sfc_RLatLon0.09_PT026H.grib2 2026-04-16 02:51 732K
20260416T00Z_MSC_RDPS_SoilTemp_DBS-0to10cm_RLatLon0.09_PT026H.grib2 2026-04-16 02:51 224K
20260416T00Z_MSC_RDPS_SoilTemp_Sfc_RLatLon0.09_PT026H.grib2 2026-04-16 02:51 257K
20260416T00Z_MSC_RDPS_SoilVolumetricIceContent_Sfc_RLatLon0.09_PT026H.grib2 2026-04-16 02:51 175K
20260416T00Z_MSC_RDPS_SoilVolumetricWaterContent_DBS-0to10cm_RLatLon0.09_PT026H.grib2 2026-04-16 02:51 245K
20260416T00Z_MSC_RDPS_SoilVolumetricWaterContent_DBS-0to1cm_RLatLon0.09_PT026H.grib2 2026-04-16 02:51 333K
20260416T00Z_MSC_RDPS_SpecificHumidity_AGL-120m_RLatLon0.09_PT026H.grib2 2026-04-16 02:51 469K
20260416T00Z_MSC_RDPS_SpecificHumidity_AGL-2m_RLatLon0.09_PT026H.grib2 2026-04-16 02:51 634K
20260416T00Z_MSC_RDPS_SpecificHumidity_AGL-40m_RLatLon0.09_PT026H.grib2 2026-04-16 02:51 474K
20260416T00Z_MSC_RDPS_SpecificHumidity_AGL-80m_RLatLon0.09_PT026H.grib2 2026-04-16 02:51 470K
20260416T00Z_MSC_RDPS_SpecificHumidity_IsbL-0001_RLatLon0.09_PT026H.grib2 2026-04-16 02:51 298K
20260416T00Z_MSC_RDPS_SpecificHumidity_IsbL-0005_RLatLon0.09_PT026H.grib2 2026-04-16 02:51 345K
20260416T00Z_MSC_RDPS_SpecificHumidity_IsbL-0010_RLatLon0.09_PT026H.grib2 2026-04-16 02:51 378K
20260416T00Z_MSC_RDPS_SpecificHumidity_IsbL-0020_RLatLon0.09_PT026H.grib2 2026-04-16 02:51 383K
20260416T00Z_MSC_RDPS_SpecificHumidity_IsbL-0030_RLatLon0.09_PT026H.grib2 2026-04-16 02:51 442K
20260416T00Z_MSC_RDPS_SpecificHumidity_IsbL-0050_RLatLon0.09_PT026H.grib2 2026-04-16 02:51 500K
20260416T00Z_MSC_RDPS_SpecificHumidity_IsbL-0100_RLatLon0.09_PT026H.grib2 2026-04-16 02:51 494K
20260416T00Z_MSC_RDPS_SpecificHumidity_IsbL-0150_RLatLon0.09_PT026H.grib2 2026-04-16 02:51 438K
20260416T00Z_MSC_RDPS_SpecificHumidity_IsbL-0175_RLatLon0.09_PT026H.grib2 2026-04-16 02:51 525K
20260416T00Z_MSC_RDPS_SpecificHumidity_IsbL-0200_RLatLon0.09_PT026H.grib2 2026-04-16 02:51 435K
20260416T00Z_MSC_RDPS_SpecificHumidity_IsbL-0225_RLatLon0.09_PT026H.grib2 2026-04-16 02:51 437K
20260416T00Z_MSC_RDPS_SpecificHumidity_IsbL-0250_RLatLon0.09_PT026H.grib2 2026-04-16 02:51 544K
20260416T00Z_MSC_RDPS_SpecificHumidity_IsbL-0275_RLatLon0.09_PT026H.grib2 2026-04-16 02:51 459K
20260416T00Z_MSC_RDPS_SpecificHumidity_IsbL-0300_RLatLon0.09_PT026H.grib2 2026-04-16 02:51 530K
20260416T00Z_MSC_RDPS_SpecificHumidity_IsbL-0350_RLatLon0.09_PT026H.grib2 2026-04-16 02:51 522K
20260416T00Z_MSC_RDPS_SpecificHumidity_IsbL-0400_RLatLon0.09_PT026H.grib2 2026-04-16 02:51 501K
20260416T00Z_MSC_RDPS_SpecificHumidity_IsbL-0450_RLatLon0.09_PT026H.grib2 2026-04-16 02:51 555K
20260416T00Z_MSC_RDPS_SpecificHumidity_IsbL-0500_RLatLon0.09_PT026H.grib2 2026-04-16 02:51 493K
20260416T00Z_MSC_RDPS_SpecificHumidity_IsbL-0550_RLatLon0.09_PT026H.grib2 2026-04-16 02:51 553K
20260416T00Z_MSC_RDPS_SpecificHumidity_IsbL-0600_RLatLon0.09_PT026H.grib2 2026-04-16 02:51 627K
20260416T00Z_MSC_RDPS_SpecificHumidity_IsbL-0650_RLatLon0.09_PT026H.grib2 2026-04-16 02:51 542K
20260416T00Z_MSC_RDPS_SpecificHumidity_IsbL-0700_RLatLon0.09_PT026H.grib2 2026-04-16 02:51 580K
20260416T00Z_MSC_RDPS_SpecificHumidity_IsbL-0750_RLatLon0.09_PT026H.grib2 2026-04-16 02:51 636K
20260416T00Z_MSC_RDPS_SpecificHumidity_IsbL-0800_RLatLon0.09_PT026H.grib2 2026-04-16 02:51 711K
20260416T00Z_MSC_RDPS_SpecificHumidity_IsbL-0850_RLatLon0.09_PT026H.grib2 2026-04-16 02:51 788K
20260416T00Z_MSC_RDPS_SpecificHumidity_IsbL-0875_RLatLon0.09_PT026H.grib2 2026-04-16 02:51 807K
20260416T00Z_MSC_RDPS_SpecificHumidity_IsbL-0900_RLatLon0.09_PT026H.grib2 2026-04-16 02:51 824K
20260416T00Z_MSC_RDPS_SpecificHumidity_IsbL-0925_RLatLon0.09_PT026H.grib2 2026-04-16 02:51 829K
20260416T00Z_MSC_RDPS_SpecificHumidity_IsbL-0950_RLatLon0.09_PT026H.grib2 2026-04-16 02:51 827K
20260416T00Z_MSC_RDPS_SpecificHumidity_IsbL-0970_RLatLon0.09_PT026H.grib2 2026-04-16 02:51 815K
20260416T00Z_MSC_RDPS_SpecificHumidity_IsbL-0985_RLatLon0.09_PT026H.grib2 2026-04-16 02:51 806K
20260416T00Z_MSC_RDPS_SpecificHumidity_IsbL-1000_RLatLon0.09_PT026H.grib2 2026-04-16 02:51 657K
20260416T00Z_MSC_RDPS_SpecificHumidity_IsbL-1015_RLatLon0.09_PT026H.grib2 2026-04-16 02:51 648K
20260416T00Z_MSC_RDPS_SpecificHumidity_Sfc_RLatLon0.09_PT026H.grib2 2026-04-16 02:51 289K
20260416T00Z_MSC_RDPS_StormRelativeHelicity_EtaL-10000_RLatLon0.09_PT026H.grib2 2026-04-16 02:51 1.1M
20260416T00Z_MSC_RDPS_StormSeverityIndex_EtaL-10000_RLatLon0.09_PT026H.grib2 2026-04-16 02:51 1.2M
20260416T00Z_MSC_RDPS_Thickness_IsbL-0850to0700_RLatLon0.09_PT026H.grib2 2026-04-16 02:51 172K
20260416T00Z_MSC_RDPS_Thickness_IsbL-1000to0500_RLatLon0.09_PT026H.grib2 2026-04-16 02:51 197K
20260416T00Z_MSC_RDPS_Thickness_IsbL-1000to0850_RLatLon0.09_PT026H.grib2 2026-04-16 02:51 181K
20260416T00Z_MSC_RDPS_TotalCloudCover_Sfc_RLatLon0.09_PT026H.grib2 2026-04-16 02:51 661K
20260416T00Z_MSC_RDPS_TotalTotalsIndex_Sfc_RLatLon0.09_PT026H.grib2 2026-04-16 02:51 2.3M
20260416T00Z_MSC_RDPS_UVIndex-ClearSky_Sfc_RLatLon0.09_PT026H.grib2 2026-04-16 02:51 105K
20260416T00Z_MSC_RDPS_UVIndex_Sfc_RLatLon0.09_PT026H.grib2 2026-04-16 02:51 227K
20260416T00Z_MSC_RDPS_UpwardLongwaveRadiationFlux_NTAtm_RLatLon0.09_PT026H.grib2 2026-04-16 02:51 480K
20260416T00Z_MSC_RDPS_UpwardShortwaveRadiationFlux_NTAtm_RLatLon0.09_PT026H.grib2 2026-04-16 02:51 216K
20260416T00Z_MSC_RDPS_VerticalVelocity_IsbL-0250_RLatLon0.09_PT026H.grib2 2026-04-16 02:51 543K
20260416T00Z_MSC_RDPS_VerticalVelocity_IsbL-0500_RLatLon0.09_PT026H.grib2 2026-04-16 02:51 535K
20260416T00Z_MSC_RDPS_VerticalVelocity_IsbL-0700_RLatLon0.09_PT026H.grib2 2026-04-16 02:51 582K
20260416T00Z_MSC_RDPS_VerticalVelocity_IsbL-0850_RLatLon0.09_PT026H.grib2 2026-04-16 02:51 681K
20260416T00Z_MSC_RDPS_VerticalWindShear_EtaL-6500_RLatLon0.09_PT026H.grib2 2026-04-16 02:51 1.2M
20260416T00Z_MSC_RDPS_WindChill_Sfc_RLatLon0.09_PT026H.grib2 2026-04-16 02:51 1.2M
20260416T00Z_MSC_RDPS_WindDir_AGL-10m_RLatLon0.09_PT026H.grib2 2026-04-16 02:51 968K
20260416T00Z_MSC_RDPS_WindDir_AGL-120m_RLatLon0.09_PT026H.grib2 2026-04-16 02:51 601K
20260416T00Z_MSC_RDPS_WindDir_AGL-40m_RLatLon0.09_PT026H.grib2 2026-04-16 02:51 631K
20260416T00Z_MSC_RDPS_WindDir_AGL-80m_RLatLon0.09_PT026H.grib2 2026-04-16 02:51 612K
20260416T00Z_MSC_RDPS_WindDir_IsbL-0001_RLatLon0.09_PT026H.grib2 2026-04-16 02:51 244K
20260416T00Z_MSC_RDPS_WindDir_IsbL-0005_RLatLon0.09_PT026H.grib2 2026-04-16 02:51 347K
20260416T00Z_MSC_RDPS_WindDir_IsbL-0010_RLatLon0.09_PT026H.grib2 2026-04-16 02:51 363K
20260416T00Z_MSC_RDPS_WindDir_IsbL-0020_RLatLon0.09_PT026H.grib2 2026-04-16 02:51 376K
20260416T00Z_MSC_RDPS_WindDir_IsbL-0030_RLatLon0.09_PT026H.grib2 2026-04-16 02:51 373K
20260416T00Z_MSC_RDPS_WindDir_IsbL-0050_RLatLon0.09_PT026H.grib2 2026-04-16 02:51 392K
20260416T00Z_MSC_RDPS_WindDir_IsbL-0100_RLatLon0.09_PT026H.grib2 2026-04-16 02:51 394K
20260416T00Z_MSC_RDPS_WindDir_IsbL-0150_RLatLon0.09_PT026H.grib2 2026-04-16 02:51 378K
20260416T00Z_MSC_RDPS_WindDir_IsbL-0175_RLatLon0.09_PT026H.grib2 2026-04-16 02:51 400K
20260416T00Z_MSC_RDPS_WindDir_IsbL-0200_RLatLon0.09_PT026H.grib2 2026-04-16 02:51 418K
20260416T00Z_MSC_RDPS_WindDir_IsbL-0225_RLatLon0.09_PT026H.grib2 2026-04-16 02:51 426K
20260416T00Z_MSC_RDPS_WindDir_IsbL-0250_RLatLon0.09_PT026H.grib2 2026-04-16 02:51 431K
20260416T00Z_MSC_RDPS_WindDir_IsbL-0275_RLatLon0.09_PT026H.grib2 2026-04-16 02:51 456K
20260416T00Z_MSC_RDPS_WindDir_IsbL-0300_RLatLon0.09_PT026H.grib2 2026-04-16 02:51 453K
20260416T00Z_MSC_RDPS_WindDir_IsbL-0350_RLatLon0.09_PT026H.grib2 2026-04-16 02:51 477K
20260416T00Z_MSC_RDPS_WindDir_IsbL-0400_RLatLon0.09_PT026H.grib2 2026-04-16 02:51 495K
20260416T00Z_MSC_RDPS_WindDir_IsbL-0450_RLatLon0.09_PT026H.grib2 2026-04-16 02:51 516K
20260416T00Z_MSC_RDPS_WindDir_IsbL-0500_RLatLon0.09_PT026H.grib2 2026-04-16 02:51 539K
20260416T00Z_MSC_RDPS_WindDir_IsbL-0550_RLatLon0.09_PT026H.grib2 2026-04-16 02:51 563K
20260416T00Z_MSC_RDPS_WindDir_IsbL-0600_RLatLon0.09_PT026H.grib2 2026-04-16 02:51 591K
20260416T00Z_MSC_RDPS_WindDir_IsbL-0650_RLatLon0.09_PT026H.grib2 2026-04-16 02:51 625K
20260416T00Z_MSC_RDPS_WindDir_IsbL-0700_RLatLon0.09_PT026H.grib2 2026-04-16 02:51 670K
20260416T00Z_MSC_RDPS_WindDir_IsbL-0750_RLatLon0.09_PT026H.grib2 2026-04-16 02:51 715K
20260416T00Z_MSC_RDPS_WindDir_IsbL-0800_RLatLon0.09_PT026H.grib2 2026-04-16 02:51 778K
20260416T00Z_MSC_RDPS_WindDir_IsbL-0850_RLatLon0.09_PT026H.grib2 2026-04-16 02:51 848K
20260416T00Z_MSC_RDPS_WindDir_IsbL-0875_RLatLon0.09_PT026H.grib2 2026-04-16 02:51 879K
20260416T00Z_MSC_RDPS_WindDir_IsbL-0900_RLatLon0.09_PT026H.grib2 2026-04-16 02:51 897K
20260416T00Z_MSC_RDPS_WindDir_IsbL-0925_RLatLon0.09_PT026H.grib2 2026-04-16 02:51 910K
20260416T00Z_MSC_RDPS_WindDir_IsbL-0950_RLatLon0.09_PT026H.grib2 2026-04-16 02:51 910K
20260416T00Z_MSC_RDPS_WindDir_IsbL-0970_RLatLon0.09_PT026H.grib2 2026-04-16 02:51 914K
20260416T00Z_MSC_RDPS_WindDir_IsbL-0985_RLatLon0.09_PT026H.grib2 2026-04-16 02:51 924K
20260416T00Z_MSC_RDPS_WindDir_IsbL-1000_RLatLon0.09_PT026H.grib2 2026-04-16 02:51 940K
20260416T00Z_MSC_RDPS_WindDir_IsbL-1015_RLatLon0.09_PT026H.grib2 2026-04-16 02:51 958K
20260416T00Z_MSC_RDPS_WindGust-Max_AGL-10m_RLatLon0.09_PT026H.grib2 2026-04-16 02:51 1.0M
20260416T00Z_MSC_RDPS_WindGust-Min_AGL-10m_RLatLon0.09_PT026H.grib2 2026-04-16 02:51 968K
20260416T00Z_MSC_RDPS_WindGust_AGL-10m_RLatLon0.09_PT026H.grib2 2026-04-16 02:51 1.0M
20260416T00Z_MSC_RDPS_WindSpeed_AGL-10m_RLatLon0.09_PT026H.grib2 2026-04-16 02:51 839K
20260416T00Z_MSC_RDPS_WindSpeed_AGL-120m_RLatLon0.09_PT026H.grib2 2026-04-16 02:51 534K
20260416T00Z_MSC_RDPS_WindSpeed_AGL-40m_RLatLon0.09_PT026H.grib2 2026-04-16 02:51 539K
20260416T00Z_MSC_RDPS_WindSpeed_AGL-80m_RLatLon0.09_PT026H.grib2 2026-04-16 02:51 536K
20260416T00Z_MSC_RDPS_WindSpeed_IsbL-0001_RLatLon0.09_PT026H.grib2 2026-04-16 02:51 291K
20260416T00Z_MSC_RDPS_WindSpeed_IsbL-0005_RLatLon0.09_PT026H.grib2 2026-04-16 02:51 336K
20260416T00Z_MSC_RDPS_WindSpeed_IsbL-0010_RLatLon0.09_PT026H.grib2 2026-04-16 02:51 347K
20260416T00Z_MSC_RDPS_WindSpeed_IsbL-0020_RLatLon0.09_PT026H.grib2 2026-04-16 02:51 368K
20260416T00Z_MSC_RDPS_WindSpeed_IsbL-0030_RLatLon0.09_PT026H.grib2 2026-04-16 02:51 334K
20260416T00Z_MSC_RDPS_WindSpeed_IsbL-0050_RLatLon0.09_PT026H.grib2 2026-04-16 02:51 374K
20260416T00Z_MSC_RDPS_WindSpeed_IsbL-0100_RLatLon0.09_PT026H.grib2 2026-04-16 02:51 489K
20260416T00Z_MSC_RDPS_WindSpeed_IsbL-0150_RLatLon0.09_PT026H.grib2 2026-04-16 02:51 370K
20260416T00Z_MSC_RDPS_WindSpeed_IsbL-0175_RLatLon0.09_PT026H.grib2 2026-04-16 02:51 393K
20260416T00Z_MSC_RDPS_WindSpeed_IsbL-0200_RLatLon0.09_PT026H.grib2 2026-04-16 02:51 413K
20260416T00Z_MSC_RDPS_WindSpeed_IsbL-0225_RLatLon0.09_PT026H.grib2 2026-04-16 02:51 442K
20260416T00Z_MSC_RDPS_WindSpeed_IsbL-0250_RLatLon0.09_PT026H.grib2 2026-04-16 02:51 446K
20260416T00Z_MSC_RDPS_WindSpeed_IsbL-0275_RLatLon0.09_PT026H.grib2 2026-04-16 02:51 464K
20260416T00Z_MSC_RDPS_WindSpeed_IsbL-0300_RLatLon0.09_PT026H.grib2 2026-04-16 02:51 462K
20260416T00Z_MSC_RDPS_WindSpeed_IsbL-0350_RLatLon0.09_PT026H.grib2 2026-04-16 02:51 473K
20260416T00Z_MSC_RDPS_WindSpeed_IsbL-0400_RLatLon0.09_PT026H.grib2 2026-04-16 02:51 457K
20260416T00Z_MSC_RDPS_WindSpeed_IsbL-0450_RLatLon0.09_PT026H.grib2 2026-04-16 02:51 454K
20260416T00Z_MSC_RDPS_WindSpeed_IsbL-0500_RLatLon0.09_PT026H.grib2 2026-04-16 02:51 570K
20260416T00Z_MSC_RDPS_WindSpeed_IsbL-0550_RLatLon0.09_PT026H.grib2 2026-04-16 02:51 575K
20260416T00Z_MSC_RDPS_WindSpeed_IsbL-0600_RLatLon0.09_PT026H.grib2 2026-04-16 02:51 586K
20260416T00Z_MSC_RDPS_WindSpeed_IsbL-0650_RLatLon0.09_PT026H.grib2 2026-04-16 02:51 648K
20260416T00Z_MSC_RDPS_WindSpeed_IsbL-0700_RLatLon0.09_PT026H.grib2 2026-04-16 02:51 669K
20260416T00Z_MSC_RDPS_WindSpeed_IsbL-0750_RLatLon0.09_PT026H.grib2 2026-04-16 02:51 698K
20260416T00Z_MSC_RDPS_WindSpeed_IsbL-0800_RLatLon0.09_PT026H.grib2 2026-04-16 02:51 749K
20260416T00Z_MSC_RDPS_WindSpeed_IsbL-0850_RLatLon0.09_PT026H.grib2 2026-04-16 02:51 763K
20260416T00Z_MSC_RDPS_WindSpeed_IsbL-0875_RLatLon0.09_PT026H.grib2 2026-04-16 02:51 786K
20260416T00Z_MSC_RDPS_WindSpeed_IsbL-0900_RLatLon0.09_PT026H.grib2 2026-04-16 02:51 803K
20260416T00Z_MSC_RDPS_WindSpeed_IsbL-0925_RLatLon0.09_PT026H.grib2 2026-04-16 02:51 862K
20260416T00Z_MSC_RDPS_WindSpeed_IsbL-0950_RLatLon0.09_PT026H.grib2 2026-04-16 02:51 863K
20260416T00Z_MSC_RDPS_WindSpeed_IsbL-0970_RLatLon0.09_PT026H.grib2 2026-04-16 02:51 856K
20260416T00Z_MSC_RDPS_WindSpeed_IsbL-0985_RLatLon0.09_PT026H.grib2 2026-04-16 02:51 853K
20260416T00Z_MSC_RDPS_WindSpeed_IsbL-1000_RLatLon0.09_PT026H.grib2 2026-04-16 02:51 850K
20260416T00Z_MSC_RDPS_WindSpeed_IsbL-1015_RLatLon0.09_PT026H.grib2 2026-04-16 02:51 840K
20260416T00Z_MSC_RDPS_WindU_AGL-10m_RLatLon0.09_PT026H.grib2 2026-04-16 02:51 430K
20260416T00Z_MSC_RDPS_WindU_AGL-120m_RLatLon0.09_PT026H.grib2 2026-04-16 02:51 532K
20260416T00Z_MSC_RDPS_WindU_AGL-40m_RLatLon0.09_PT026H.grib2 2026-04-16 02:51 536K
20260416T00Z_MSC_RDPS_WindU_AGL-80m_RLatLon0.09_PT026H.grib2 2026-04-16 02:51 534K
20260416T00Z_MSC_RDPS_WindU_IsbL-0001_RLatLon0.09_PT026H.grib2 2026-04-16 02:51 261K
20260416T00Z_MSC_RDPS_WindU_IsbL-0005_RLatLon0.09_PT026H.grib2 2026-04-16 02:51 302K
20260416T00Z_MSC_RDPS_WindU_IsbL-0010_RLatLon0.09_PT026H.grib2 2026-04-16 02:51 312K
20260416T00Z_MSC_RDPS_WindU_IsbL-0020_RLatLon0.09_PT026H.grib2 2026-04-16 02:51 258K
20260416T00Z_MSC_RDPS_WindU_IsbL-0030_RLatLon0.09_PT026H.grib2 2026-04-16 02:51 258K
20260416T00Z_MSC_RDPS_WindU_IsbL-0050_RLatLon0.09_PT026H.grib2 2026-04-16 02:51 366K
20260416T00Z_MSC_RDPS_WindU_IsbL-0100_RLatLon0.09_PT026H.grib2 2026-04-16 02:51 345K
20260416T00Z_MSC_RDPS_WindU_IsbL-0150_RLatLon0.09_PT026H.grib2 2026-04-16 02:51 388K
20260416T00Z_MSC_RDPS_WindU_IsbL-0175_RLatLon0.09_PT026H.grib2 2026-04-16 02:51 409K
20260416T00Z_MSC_RDPS_WindU_IsbL-0200_RLatLon0.09_PT026H.grib2 2026-04-16 02:51 427K
20260416T00Z_MSC_RDPS_WindU_IsbL-0225_RLatLon0.09_PT026H.grib2 2026-04-16 02:51 434K
20260416T00Z_MSC_RDPS_WindU_IsbL-0250_RLatLon0.09_PT026H.grib2 2026-04-16 02:51 437K
20260416T00Z_MSC_RDPS_WindU_IsbL-0275_RLatLon0.09_PT026H.grib2 2026-04-16 02:51 354K
20260416T00Z_MSC_RDPS_WindU_IsbL-0300_RLatLon0.09_PT026H.grib2 2026-04-16 02:51 451K
20260416T00Z_MSC_RDPS_WindU_IsbL-0350_RLatLon0.09_PT026H.grib2 2026-04-16 02:51 459K
20260416T00Z_MSC_RDPS_WindU_IsbL-0400_RLatLon0.09_PT026H.grib2 2026-04-16 02:51 462K
20260416T00Z_MSC_RDPS_WindU_IsbL-0450_RLatLon0.09_PT026H.grib2 2026-04-16 02:51 461K
20260416T00Z_MSC_RDPS_WindU_IsbL-0500_RLatLon0.09_PT026H.grib2 2026-04-16 02:51 463K
20260416T00Z_MSC_RDPS_WindU_IsbL-0550_RLatLon0.09_PT026H.grib2 2026-04-16 02:51 466K
20260416T00Z_MSC_RDPS_WindU_IsbL-0600_RLatLon0.09_PT026H.grib2 2026-04-16 02:51 476K
20260416T00Z_MSC_RDPS_WindU_IsbL-0650_RLatLon0.09_PT026H.grib2 2026-04-16 02:51 476K
20260416T00Z_MSC_RDPS_WindU_IsbL-0700_RLatLon0.09_PT026H.grib2 2026-04-16 02:51 495K
20260416T00Z_MSC_RDPS_WindU_IsbL-0750_RLatLon0.09_PT026H.grib2 2026-04-16 02:51 520K
20260416T00Z_MSC_RDPS_WindU_IsbL-0800_RLatLon0.09_PT026H.grib2 2026-04-16 02:51 564K
20260416T00Z_MSC_RDPS_WindU_IsbL-0850_RLatLon0.09_PT026H.grib2 2026-04-16 02:51 616K
20260416T00Z_MSC_RDPS_WindU_IsbL-0875_RLatLon0.09_PT026H.grib2 2026-04-16 02:51 637K
20260416T00Z_MSC_RDPS_WindU_IsbL-0900_RLatLon0.09_PT026H.grib2 2026-04-16 02:51 658K
20260416T00Z_MSC_RDPS_WindU_IsbL-0925_RLatLon0.09_PT026H.grib2 2026-04-16 02:51 665K
20260416T00Z_MSC_RDPS_WindU_IsbL-0950_RLatLon0.09_PT026H.grib2 2026-04-16 02:51 656K
20260416T00Z_MSC_RDPS_WindU_IsbL-0970_RLatLon0.09_PT026H.grib2 2026-04-16 02:51 653K
20260416T00Z_MSC_RDPS_WindU_IsbL-0985_RLatLon0.09_PT026H.grib2 2026-04-16 02:51 790K
20260416T00Z_MSC_RDPS_WindU_IsbL-1000_RLatLon0.09_PT026H.grib2 2026-04-16 02:51 786K
20260416T00Z_MSC_RDPS_WindU_IsbL-1015_RLatLon0.09_PT026H.grib2 2026-04-16 02:51 824K
20260416T00Z_MSC_RDPS_WindV_AGL-10m_RLatLon0.09_PT026H.grib2 2026-04-16 02:51 428K
20260416T00Z_MSC_RDPS_WindV_AGL-120m_RLatLon0.09_PT026H.grib2 2026-04-16 02:51 414K
20260416T00Z_MSC_RDPS_WindV_AGL-40m_RLatLon0.09_PT026H.grib2 2026-04-16 02:51 533K
20260416T00Z_MSC_RDPS_WindV_AGL-80m_RLatLon0.09_PT026H.grib2 2026-04-16 02:51 416K
20260416T00Z_MSC_RDPS_WindV_IsbL-0001_RLatLon0.09_PT026H.grib2 2026-04-16 02:51 261K
20260416T00Z_MSC_RDPS_WindV_IsbL-0005_RLatLon0.09_PT026H.grib2 2026-04-16 02:51 300K
20260416T00Z_MSC_RDPS_WindV_IsbL-0010_RLatLon0.09_PT026H.grib2 2026-04-16 02:51 309K
20260416T00Z_MSC_RDPS_WindV_IsbL-0020_RLatLon0.09_PT026H.grib2 2026-04-16 02:51 321K
20260416T00Z_MSC_RDPS_WindV_IsbL-0030_RLatLon0.09_PT026H.grib2 2026-04-16 02:51 326K
20260416T00Z_MSC_RDPS_WindV_IsbL-0050_RLatLon0.09_PT026H.grib2 2026-04-16 02:51 366K
20260416T00Z_MSC_RDPS_WindV_IsbL-0100_RLatLon0.09_PT026H.grib2 2026-04-16 02:51 436K
20260416T00Z_MSC_RDPS_WindV_IsbL-0150_RLatLon0.09_PT026H.grib2 2026-04-16 02:51 385K
20260416T00Z_MSC_RDPS_WindV_IsbL-0175_RLatLon0.09_PT026H.grib2 2026-04-16 02:51 409K
20260416T00Z_MSC_RDPS_WindV_IsbL-0200_RLatLon0.09_PT026H.grib2 2026-04-16 02:51 426K
20260416T00Z_MSC_RDPS_WindV_IsbL-0225_RLatLon0.09_PT026H.grib2 2026-04-16 02:51 337K
20260416T00Z_MSC_RDPS_WindV_IsbL-0250_RLatLon0.09_PT026H.grib2 2026-04-16 02:51 338K
20260416T00Z_MSC_RDPS_WindV_IsbL-0275_RLatLon0.09_PT026H.grib2 2026-04-16 02:51 352K
20260416T00Z_MSC_RDPS_WindV_IsbL-0300_RLatLon0.09_PT026H.grib2 2026-04-16 02:51 348K
20260416T00Z_MSC_RDPS_WindV_IsbL-0350_RLatLon0.09_PT026H.grib2 2026-04-16 02:51 357K
20260416T00Z_MSC_RDPS_WindV_IsbL-0400_RLatLon0.09_PT026H.grib2 2026-04-16 02:51 459K
20260416T00Z_MSC_RDPS_WindV_IsbL-0450_RLatLon0.09_PT026H.grib2 2026-04-16 02:51 458K
20260416T00Z_MSC_RDPS_WindV_IsbL-0500_RLatLon0.09_PT026H.grib2 2026-04-16 02:51 460K
20260416T00Z_MSC_RDPS_WindV_IsbL-0550_RLatLon0.09_PT026H.grib2 2026-04-16 02:51 463K
20260416T00Z_MSC_RDPS_WindV_IsbL-0600_RLatLon0.09_PT026H.grib2 2026-04-16 02:51 454K
20260416T00Z_MSC_RDPS_WindV_IsbL-0650_RLatLon0.09_PT026H.grib2 2026-04-16 02:51 472K
20260416T00Z_MSC_RDPS_WindV_IsbL-0700_RLatLon0.09_PT026H.grib2 2026-04-16 02:51 492K
20260416T00Z_MSC_RDPS_WindV_IsbL-0750_RLatLon0.09_PT026H.grib2 2026-04-16 02:51 517K
20260416T00Z_MSC_RDPS_WindV_IsbL-0800_RLatLon0.09_PT026H.grib2 2026-04-16 02:51 560K
20260416T00Z_MSC_RDPS_WindV_IsbL-0850_RLatLon0.09_PT026H.grib2 2026-04-16 02:51 611K
20260416T00Z_MSC_RDPS_WindV_IsbL-0875_RLatLon0.09_PT026H.grib2 2026-04-16 02:51 632K
20260416T00Z_MSC_RDPS_WindV_IsbL-0900_RLatLon0.09_PT026H.grib2 2026-04-16 02:51 648K
20260416T00Z_MSC_RDPS_WindV_IsbL-0925_RLatLon0.09_PT026H.grib2 2026-04-16 02:51 656K
20260416T00Z_MSC_RDPS_WindV_IsbL-0950_RLatLon0.09_PT026H.grib2 2026-04-16 02:51 653K
20260416T00Z_MSC_RDPS_WindV_IsbL-0970_RLatLon0.09_PT026H.grib2 2026-04-16 02:51 648K
20260416T00Z_MSC_RDPS_WindV_IsbL-0985_RLatLon0.09_PT026H.grib2 2026-04-16 02:51 646K
20260416T00Z_MSC_RDPS_WindV_IsbL-1000_RLatLon0.09_PT026H.grib2 2026-04-16 02:51 782K
20260416T00Z_MSC_RDPS_WindV_IsbL-1015_RLatLon0.09_PT026H.grib2 2026-04-16 02:51 775K